This demonstration page uses our WeatherBlox Daily Observations layout. Learn more.

40.92945, -100.16068

Hourly Observations for October 7, 2019

Temp ( °F °C ) Dew Point ( °F °C ) Humidity (%) Winds ( mph kmh ) Pressure ( in mb ) Visibility ( mi km ) Precip ( " mm )
12:15 am 00:15 Clear 38 3.2 35 1.9 91 91 Calm 30.37 1028 10 16.0934 0 0
12:35 am 00:35 Clear 37 2.7 35 1.7 93 93 Calm 30.37 1028 10 16.0934 0 0
12:55 am 00:55 Clear 37 2.5 35 1.9 96 96 WNW 3 6 30.37 1029 10 16.0934 0 0
1:15 am 01:15 Clear 37 2.5 35 1.4 93 93 WNW 3 6 30.37 1029 10 16.0934 0 0
1:35 am 01:35 Clear 36 2.1 34 1.2 94 94 NW 5 7 30.38 1029 10 16.0934 0 0
1:55 am 01:55 Clear 36 2 34 1.2 95 95 NNW 5 7 30.38 1029 10 16.0934 0 0
2:15 am 02:15 Clear 36 2.1 35 1.4 95 95 N 3 6 30.38 1029 10 16.0934 0 0
2:35 am 02:35 Clear 36 2 34 1.2 95 95 Calm 30.38 1029 10 16.0934 0 0
2:55 am 02:55 Clear 35 1.8 34 1 95 95 Calm 30.38 1029 10 16.0934 0 0
3:15 am 03:15 Clear 35 1.8 34 1 95 95 Calm 30.38 1029 10 16.0934 0 0
3:35 am 03:35 Clear 34 1.3 33 0.8 97 97 Calm 30.37 1029 10 16.0934 0 0
3:55 am 03:55 Clear 34 0.9 33 0.5 97 97 Calm 30.37 1028 10 16.0934 0 0
4:15 am 04:15 Clear 34 1 33 0.4 96 96 Calm 30.37 1028 10 16.0934 0 0
4:35 am 04:35 Clear 34 0.9 33 0.5 97 97 N 3 6 30.37 1028 10 16.0934 0 0
4:55 am 04:55 Clear 33 0.8 33 0.4 97 97 Calm 30.36 1028 10 16.0934 0 0
5:15 am 05:15 Clear 33 0.8 33 0.5 98 98 Calm 30.36 1028 10 16.0934 0 0
5:35 am 05:35 Clear 33 0.7 32 0.2 97 97 Calm 30.36 1028 10 16.0934 0 0
5:55 am 05:55 Clear 33 0.5 32 0.1 97 97 Calm 30.36 1028 10 16.0934 0 0
6:15 am 06:15 Clear 33 0.5 32 0 96 96 W 5 7 30.36 1028 10 16.0934 0 0
6:35 am 06:35 Clear 36 2 33 0.7 91 91 Calm 30.35 1028 10 16.0934 0 0
6:55 am 06:55 Clear 35 1.7 33 0.3 91 91 Calm 30.34 1027 10 16.0934 0 0
7:15 am 07:15 Clear 37 2.5 33 0.5 87 87 Calm 30.34 1028 10 16.0934 0 0
7:35 am 07:35 Clear 37 2.6 33 0.4 86 86 Calm 30.34 1027 10 16.0934 0 0
7:55 am 07:55 Sunny 38 3.5 33 0.6 82 82 SW 3 6 30.33 1027 10 16.0934 0 0
8:15 am 08:15 Sunny 40 4.6 34 1.1 78 78 SW 5 7 30.32 1027 10 16.0934 0 0
8:35 am 08:35 Sunny 42 5.4 36 2 79 79 SW 6 9 30.31 1027 10 16.0934 0 0
8:55 am 08:55 Sunny 44 6.5 37 2.7 77 77 SW 3 6 30.3 1026 10 16.0934 0 0
9:15 am 09:15 Sunny 45 7.3 38 3.1 75 75 Calm 30.3 1026 10 16.0934 0 0
9:35 am 09:35 Sunny 47 8.5 38 3.5 71 71 SW 3 6 30.29 1026 10 16.0934 0 0
9:55 am 09:55 Sunny 49 9.6 38 3.5 66 66 SW 5 7 30.27 1025 10 16.0934 0 0
10:15 am 10:15 Sunny 52 11 40 4.2 63 63 SW 5 7 30.26 1025 10 16.0934 0 0
10:35 am 10:35 Sunny 55 12.5 39 4.1 57 57 SW 7 11 30.24 1024 10 16.0934 0 0
10:55 am 10:55 Sunny 58 14.4 40 4.5 52 52 WSW 7 11 30.22 1023 10 16.0934 0 0
11:15 am 11:15 Sunny 60 15.4 40 4.6 49 49 SW 7 11 30.2 1023 10 16.0934 0 0
11:35 am 11:35 Sunny 61 16.3 41 4.8 47 47 WSW 10 17 30.19 1022 10 16.0934 0 0
11:55 am 11:55 Sunny 62 16.8 41 5.2 47 47 WSW 8 13 30.18 1022 10 16.0934 0 0
12:15 pm 12:15 Sunny 63 17.4 43 6 47 47 S 10 17 30.16 1021 10 16.0934 0 0
12:35 pm 12:35 Sunny 64 18 43 6 46 46 SSW 13 20 30.15 1021 10 16.0934 0 0
12:55 pm 12:55 Sunny 66 18.7 43 5.9 43 43 SSW 14 22 30.13 1020 10 16.0934 0 0
1:15 pm 13:15 Sunny 67 19.5 43 6.2 42 42 SSW 12 19 30.12 1020 10 16.0934 0 0
1:35 pm 13:35 Sunny 68 19.9 42 5.5 39 39 SSW 16 26 30.1 1019 10 16.0934 0 0
1:55 pm 13:55 Sunny 69 20.7 40 4.5 35 35 SSW 17 28 30.09 1019 10 16.0934 0 0
2:15 pm 14:15 Sunny 70 21.3 39 4 32 32 SSW 16 26 30.06 1018 10 16.0934 0 0
2:35 pm 14:35 Sunny 72 22.1 37 3 29 29 S 17 28 30.03 1017 10 16.0934 0 0
2:55 pm 14:55 Sunny 73 22.6 37 2.7 27 27 SSW 14 22 30.02 1017 10 16.0934 0 0
3:15 pm 15:15 Sunny 73 22.7 35 1.7 25 25 SSW 17 28 30.01 1016 10 16.0934 0 0
3:35 pm 15:35 Sunny 73 23 33 0.4 22 22 SSW 16 26 30 1016 10 16.0934 0 0
3:55 pm 15:55 Sunny 74 23.1 33 0.4 22 22 S 17 28 30 1016 10 16.0934 0 0
4:15 pm 16:15 Sunny 74 23.1 33 0.3 22 22 S 16 26 30 1016 10 16.0934 0 0
4:35 pm 16:35 Sunny 73 22.8 32 0 22 22 SSW 20 31 29.99 1016 10 16.0934 0 0
4:55 pm 16:55 Sunny 73 22.7 34 0.9 24 24 S 21 33 29.98 1015 10 16.0934 0 0
5:15 pm 17:15 Sunny 72 22.3 33 0.8 24 24 S 17 28 29.97 1015 10 16.0934 0 0
5:35 pm 17:35 Sunny 71 21.8 35 1.4 26 26 S 15 24 29.98 1015 10 16.0934 0 0
5:55 pm 17:55 Sunny 71 21.5 36 2.1 28 28 S 15 24 29.97 1015 10 16.0934 0 0
6:15 pm 18:15 Sunny 69 20.8 37 2.8 31 31 S 15 24 29.97 1015 10 16.0934 0 0
6:35 pm 18:35 Sunny 68 20 37 2.8 32 32 S 14 22 29.97 1015 10 16.0934 0 0
6:55 pm 18:55 Sunny 66 18.7 37 2.6 34 34 S 10 17 29.98 1015 10 16.0934 0 0
7:15 pm 19:15 Clear 63 17 38 3.1 40 40 SSE 13 20 30 1016 10 16.0934 0 0
7:35 pm 19:35 Clear 62 16.4 37 3 41 41 SSE 12 19 30 1016 10 16.0934 0 0
7:55 pm 19:55 Clear 59 15.1 38 3.2 45 45 SSE 10 17 30.01 1016 10 16.0934 0 0
8:15 pm 20:15 Clear 58 14.5 38 3.3 47 47 SSE 14 22 30.02 1017 10 16.0934 0 0
8:35 pm 20:35 Clear 58 14.4 38 3.5 48 48 SSE 13 20 30.02 1017 10 16.0934 0 0
8:55 pm 20:55 Clear 57 13.9 38 3.6 50 50 SSE 14 22 30.03 1017 10 16.0934 0 0
9:15 pm 21:15 Clear 56 13.6 39 3.8 52 52 SSE 13 20 30.03 1017 10 16.0934 0 0
9:35 pm 21:35 Clear 56 13.2 39 4 54 54 SSE 12 19 30.03 1017 10 16.0934 0 0
9:55 pm 21:55 Clear 56 13.1 39 3.9 54 54 S 15 24 30.02 1017 10 16.0934 0 0
10:15 pm 22:15 Clear 56 13.5 39 3.7 52 52 SSE 14 22 30.02 1017 10 16.0934 0 0
10:35 pm 22:35 Clear 56 13.1 39 3.7 53 53 S 14 22 30.02 1017 10 16.0934 0 0
10:55 pm 22:55 Clear 56 13.2 38 3.5 52 52 S 17 28 30.01 1016 10 16.0934 0 0
11:15 pm 23:15 Clear 55 12.7 38 3.5 54 54 S 15 24 30.02 1016 10 16.0934 0 0
11:35 pm 23:35 Clear 54 12.4 38 3.5 55 55 S 13 20 30.02 1017 10 16.0934 0 0
11:55 pm 23:55 Clear 54 12.1 38 3.3 55 55 S 14 22 30.01 1016 10 16.0934 0 0

Powered by AerisWeather